Home   Weather   Teófilo Otoni   Past weeks

Flag for Brazil Past Weather in Teófilo Otoni, Minas Gerais, Brazil — Yesterday and Last 2 Weeks

Now
77 °F

Scattered clouds.


Feels Like: 79 °F
Forecast: 69 / 88 °F
Wind: 7 mph from Northeast

Location: Belo Horizonte Airport

Current Time: Jan 20, 2017 at 12:06:30 pm

Latest Report: Jan 20, 2017 at 11:00 am


Visibility: N/A

Pressure: 30.15 "Hg

Humidity: 54%

Dew Point: 59 °F

Location of Teófilo OtoniLocation

Past Weather in Teófilo Otoni — Graph

°F

Teófilo Otoni Temperature Yesterday

Maximum temperature yesterday: 84 °F (at 3:00 pm)
Minimum temperature yesterday: 64 °F (at 6:00 am)
Average temperature yesterday: 75 °F

High & Low Weather Summary for the Past Weeks

 TemperatureHumidityPressure
High90 °F (Jan 5, 4:00 pm)100% (Jan 14, 9:19 am)30.15 "Hg (Jan 14, 9:19 am)
Low46 °F (Jan 15, 5:00 am)29% (Jan 5, 5:00 pm)29.86 "Hg (Jan 14, 5:00 pm)
Average75 °F67%30.01 "Hg
* Reported Jan 5 11:00 am — Jan 20 11:00 am, Teófilo Otoni, Weather by CustomWeather, © 2017

Note: Actual official high and low records may vary slightly from our data, if they occured in-between our weather recording intervals... More about our weather records

Advertising

Teófilo Otoni Weather History for the Previous 24 Hours

Scroll right to see more
 ConditionsComfort  
Time TempWeatherWind HumidityBarometerVisibility
11:00 am
Fri, Jan 20
77 °FScattered clouds.7 mph54%30.15 "HgN/A
10:00 am75 °FPassing clouds.9 mph61%30.15 "HgN/A
9:00 am73 °FSunny.5 mph65%30.15 "Hg10 mi
8:00 am70 °FSunny.7 mph73%30.12 "Hg10 mi
7:00 am70 °FSunny.9 mph69%30.09 "Hg10 mi
6:00 am68 °FClear.9 mph73%30.07 "Hg10 mi
5:00 am70 °FClear.9 mph69%30.07 "Hg10 mi
4:00 am70 °FClear.9 mph69%30.04 "Hg10 mi
3:00 am70 °FClear.9 mph69%30.07 "Hg10 mi
2:00 am70 °FClear.8 mph69%30.07 "Hg10 mi
1:00 am72 °FClear.7 mph65%30.09 "Hg10 mi
12:00 am72 °FPassing clouds.8 mph65%30.09 "HgN/A
11:00 pm
Thu, Jan 19
73 °FClear.12 mph65%30.09 "Hg10 mi
10:00 pm75 °FClear.10 mph65%30.07 "Hg10 mi
9:00 pm77 °FClear.12 mph61%30.07 "Hg10 mi
8:00 pm79 °FPassing clouds.13 mph58%30.01 "HgN/A
7:00 pm82 °FPassing clouds.12 mph48%30.01 "HgN/A
6:00 pm82 °FPassing clouds.8 mph51%29.98 "HgN/A
5:00 pm84 °FScattered clouds.8 mph45%30.01 "HgN/A
4:00 pm84 °FScattered clouds.6 mph43%30.01 "HgN/A
3:00 pm84 °FScattered clouds.5 mph45%30.04 "HgN/A
2:00 pm82 °FScattered clouds.5 mph51%30.07 "HgN/A
1:00 pm81 °FPassing clouds.5 mph51%30.09 "HgN/A
12:00 pm81 °FPassing clouds.8 mph45%30.09 "HgN/A
Weather by CustomWeather, © 2017

See weather overviewHow to use our weather pages